Location: New Canada
(47.1017°N, 68.5042°W)
Time: 22:23:09
(UTC+00:00)

RS-44 - Pass Details

Date: 07 April 2023
Orbit: 1175 x 1510 km, 82.5° (Epoch: 02 June)

Event Time Altitude Azimuth Distance (km) Brightness Sun altitude
Rises 06:06:35 0° 346° (NNW) 4,454 ? -32.6°
Reaches altitude 10° 06:09:28 10° 341° (NNW) 3,517 ? -32.3°
Enters shadow 06:17:18 46° 274° (W) 1,892 ? -31.7°
